RH
48 54 50 45 45 51 56 80 80 74 70 57 45 38 33 33 32 27 24 25 25 25
57 52 55 54 50 54 54 71 76 80 64 61 54 49 45 39 36 29 22 26 23 24
56 58 66 51 57 60 73 79 87 76 55 57 48 46 45 38 32 25 27 23 21 22
73 68 61 75 61 64 61 91 74 69 59 50 54 52 46 38 33 31 26 23 23 23
74 68 65 81 68 70 76 81 87 69 56 60 51 44 39 36 36 36 35 34 31 25
78 74 72 73 72 79 92 92 76 64 63 59 49 44 43 42 40 38 33 29 28 31
84 79 90 82 88 88 93 83 78 70 61 51 44 45 45 43 40 36 36 34 33 34
86 91 94 98 98 95 84 71 65 59 55 52 53 52 47 43 40 37 37 36 41 44
98 98 98 98 95 86 80 73 74 64 56 53 47 45 42 42 44 45 52 47 41 39
98 98 98 98 94 91 85 79 61 52 50 49 47 45 47 49 53 47 41 39 40 40
98 98 98 97 93 87 75 60 56 54 53 50 52 55 57 51 47 41 42 44 42 33
98 97 97 93 89 76 63 58 57 56 57 62 59 52 47 44 45 48 45 37 33 30
98 97 93 85 77 66 59 59 66 74 65 56 52 51 54 51 42 38 36 32 33 31
98 94 87 80 69 70 77 74 63 58 56 55 55 48 44 43 40 37 36 34 33 35